Year,Month,Day,Hour,Minute,Value (Times are PST for temperature in C)
2020,04,10,00,00,7.30
2020,04,10,00,01,7.30
2020,04,10,00,02,7.30
2020,04,10,00,03,7.30
2020,04,10,00,04,7.30
2020,04,10,00,05,7.30
2020,04,10,00,06,7.30
2020,04,10,00,07,7.30
2020,04,10,00,08,7.40
2020,04,10,00,09,7.40
2020,04,10,00,10,7.40
2020,04,10,00,11,7.40
2020,04,10,00,12,7.40
2020,04,10,00,13,7.30
2020,04,10,00,14,7.30
2020,04,10,00,15,7.20
2020,04,10,00,16,7.10
2020,04,10,00,17,7.10
2020,04,10,00,18,7.00
2020,04,10,00,19,6.90
2020,04,10,00,20,6.90
2020,04,10,00,21,6.80
2020,04,10,00,22,6.80
2020,04,10,00,23,6.80
2020,04,10,00,24,6.70
2020,04,10,00,25,6.70
2020,04,10,00,26,6.60
2020,04,10,00,27,6.60
2020,04,10,00,28,6.60
2020,04,10,00,29,6.70
2020,04,10,00,30,6.70
2020,04,10,00,31,6.70
2020,04,10,00,32,6.70
2020,04,10,00,33,6.70
2020,04,10,00,34,6.60
2020,04,10,00,35,6.60
2020,04,10,00,36,6.50
2020,04,10,00,37,6.50
2020,04,10,00,38,6.50
2020,04,10,00,39,6.50
2020,04,10,00,40,6.50
2020,04,10,00,41,6.50
2020,04,10,00,42,6.50
2020,04,10,00,43,6.60
2020,04,10,00,44,6.60
2020,04,10,00,45,6.60
2020,04,10,00,46,6.60
2020,04,10,00,47,6.70
2020,04,10,00,48,6.70
2020,04,10,00,49,6.70
2020,04,10,00,50,6.70
2020,04,10,00,51,6.70
2020,04,10,00,52,6.70
2020,04,10,00,53,6.70
2020,04,10,00,54,6.70
2020,04,10,00,55,6.70
2020,04,10,00,56,6.70
2020,04,10,00,57,6.70
2020,04,10,00,58,6.60
2020,04,10,00,59,6.60
2020,04,10,01,00,6.60
2020,04,10,01,01,6.50
2020,04,10,01,02,6.50
2020,04,10,01,03,6.50
2020,04,10,01,04,6.50
2020,04,10,01,05,6.50
2020,04,10,01,06,6.50
2020,04,10,01,07,6.50
2020,04,10,01,08,6.50
2020,04,10,01,09,6.50
2020,04,10,01,10,6.50
2020,04,10,01,11,6.50
2020,04,10,01,12,6.50
2020,04,10,01,13,6.50
2020,04,10,01,14,6.50
2020,04,10,01,15,6.50
2020,04,10,01,16,6.50
2020,04,10,01,17,6.50
2020,04,10,01,18,6.50
2020,04,10,01,19,6.50
2020,04,10,01,20,6.50
2020,04,10,01,21,6.50
2020,04,10,01,22,6.50
2020,04,10,01,23,6.50
2020,04,10,01,24,6.50
2020,04,10,01,25,6.50
2020,04,10,01,26,6.50
2020,04,10,01,27,6.50
2020,04,10,01,28,6.50
2020,04,10,01,29,6.50
2020,04,10,01,30,6.50
2020,04,10,01,31,6.60
2020,04,10,01,32,6.60
2020,04,10,01,33,6.60
2020,04,10,01,34,6.60
2020,04,10,01,35,6.60
2020,04,10,01,36,6.70
2020,04,10,01,37,6.70
2020,04,10,01,38,6.70
2020,04,10,01,39,6.70
2020,04,10,01,40,6.70
2020,04,10,01,41,6.70
2020,04,10,01,42,6.70
2020,04,10,01,43,6.80
2020,04,10,01,44,6.80
2020,04,10,01,45,6.80
2020,04,10,01,46,6.80
2020,04,10,01,47,6.80
2020,04,10,01,48,6.80
2020,04,10,01,49,6.80
2020,04,10,01,50,6.70
2020,04,10,01,51,6.60
2020,04,10,01,52,6.60
2020,04,10,01,53,6.50
2020,04,10,01,54,6.40
2020,04,10,01,55,6.30
2020,04,10,01,56,6.30
2020,04,10,01,57,6.30
2020,04,10,01,58,6.30
2020,04,10,01,59,6.30
2020,04,10,02,00,6.30
2020,04,10,02,01,6.30
2020,04,10,02,02,6.20
2020,04,10,02,03,6.10
2020,04,10,02,04,6.00
2020,04,10,02,05,6.00
2020,04,10,02,06,6.00
2020,04,10,02,07,5.90
2020,04,10,02,08,5.90
2020,04,10,02,09,6.00
2020,04,10,02,10,6.00
2020,04,10,02,11,6.10
2020,04,10,02,12,6.10
2020,04,10,02,13,6.10
2020,04,10,02,14,6.20
2020,04,10,02,15,6.20
2020,04,10,02,16,6.30
2020,04,10,02,17,6.30
2020,04,10,02,18,6.40
2020,04,10,02,19,6.50
2020,04,10,02,20,6.50
2020,04,10,02,21,6.60
2020,04,10,02,22,6.60
2020,04,10,02,23,6.60
2020,04,10,02,24,6.60
2020,04,10,02,25,6.60
2020,04,10,02,26,6.70
2020,04,10,02,27,6.70
2020,04,10,02,28,6.70
2020,04,10,02,29,6.70
2020,04,10,02,30,6.80
2020,04,10,02,31,6.80
2020,04,10,02,32,6.80
2020,04,10,02,33,6.70
2020,04,10,02,34,6.70
2020,04,10,02,35,6.70
2020,04,10,02,36,6.70
2020,04,10,02,37,6.60
2020,04,10,02,38,6.40
2020,04,10,02,39,6.30
2020,04,10,02,40,6.20
2020,04,10,02,41,6.10
2020,04,10,02,42,6.00
2020,04,10,02,43,5.90
2020,04,10,02,44,5.90
2020,04,10,02,45,5.90
2020,04,10,02,46,5.90
2020,04,10,02,47,6.00
2020,04,10,02,48,6.00
2020,04,10,02,49,6.10
2020,04,10,02,50,6.10
2020,04,10,02,51,6.10
2020,04,10,02,52,6.10
2020,04,10,02,53,6.20
2020,04,10,02,54,6.20
2020,04,10,02,55,6.20
2020,04,10,02,56,6.20
2020,04,10,02,57,6.20
2020,04,10,02,58,6.20
2020,04,10,02,59,6.20
2020,04,10,03,00,6.20
2020,04,10,03,01,6.10
2020,04,10,03,02,6.10
2020,04,10,03,03,6.10
2020,04,10,03,04,6.10
2020,04,10,03,05,6.10
2020,04,10,03,06,6.10
2020,04,10,03,07,6.10
2020,04,10,03,08,6.00
2020,04,10,03,09,6.00
2020,04,10,03,10,6.00
2020,04,10,03,11,6.00
2020,04,10,03,12,5.90
2020,04,10,03,13,5.80
2020,04,10,03,14,5.80
2020,04,10,03,15,5.70
2020,04,10,03,16,5.70
2020,04,10,03,17,5.70
2020,04,10,03,18,5.60
2020,04,10,03,19,5.60
2020,04,10,03,20,5.60
2020,04,10,03,21,5.70
2020,04,10,03,22,5.70
2020,04,10,03,23,5.80
2020,04,10,03,24,5.80
2020,04,10,03,25,5.80
2020,04,10,03,26,5.80
2020,04,10,03,27,5.80
2020,04,10,03,28,5.80
2020,04,10,03,29,5.80
2020,04,10,03,30,5.80
2020,04,10,03,31,5.80
2020,04,10,03,32,5.80
2020,04,10,03,33,5.80
2020,04,10,03,34,5.80
2020,04,10,03,35,5.80
2020,04,10,03,36,5.80
2020,04,10,03,37,5.90
2020,04,10,03,38,5.90
2020,04,10,03,39,5.90
2020,04,10,03,40,5.90
2020,04,10,03,41,5.90
2020,04,10,03,42,5.90
2020,04,10,03,43,5.90
2020,04,10,03,44,5.90
2020,04,10,03,45,5.90
2020,04,10,03,46,5.90
2020,04,10,03,47,5.90
2020,04,10,03,48,5.90
2020,04,10,03,49,5.80
2020,04,10,03,50,5.80
2020,04,10,03,51,5.70
2020,04,10,03,52,5.70
2020,04,10,03,53,5.60
2020,04,10,03,54,5.50
2020,04,10,03,55,5.40
2020,04,10,03,56,5.40
2020,04,10,03,57,5.30
2020,04,10,03,58,5.30
2020,04,10,03,59,5.20
2020,04,10,04,00,5.20
2020,04,10,04,01,5.10
2020,04,10,04,02,5.00
2020,04,10,04,03,5.00
2020,04,10,04,04,5.00
2020,04,10,04,05,5.00
2020,04,10,04,06,5.10
2020,04,10,04,07,5.10
2020,04,10,04,08,5.10
2020,04,10,04,09,5.10
2020,04,10,04,10,5.10
2020,04,10,04,11,5.00
2020,04,10,04,12,5.00
2020,04,10,04,13,4.90
2020,04,10,04,14,4.90
2020,04,10,04,15,4.90
2020,04,10,04,16,4.90
2020,04,10,04,17,4.90
2020,04,10,04,18,4.90
2020,04,10,04,19,4.90
2020,04,10,04,20,4.90
2020,04,10,04,21,4.90
2020,04,10,04,22,5.00
2020,04,10,04,23,5.00
2020,04,10,04,24,5.10
2020,04,10,04,25,5.10
2020,04,10,04,26,5.10
2020,04,10,04,27,5.00
2020,04,10,04,28,5.00
2020,04,10,04,29,5.00
2020,04,10,04,30,4.90
2020,04,10,04,31,4.90
2020,04,10,04,32,4.90
2020,04,10,04,33,4.90
2020,04,10,04,34,4.90
2020,04,10,04,35,4.90
2020,04,10,04,36,5.00
2020,04,10,04,37,5.00
2020,04,10,04,38,4.90
2020,04,10,04,39,4.90
2020,04,10,04,40,5.00
2020,04,10,04,41,5.00
2020,04,10,04,42,5.10
2020,04,10,04,43,5.10
2020,04,10,04,44,5.10
2020,04,10,04,45,5.10
2020,04,10,04,46,5.10
2020,04,10,04,47,5.00
2020,04,10,04,48,5.00
2020,04,10,04,49,5.00
2020,04,10,04,50,5.00
2020,04,10,04,51,4.90
2020,04,10,04,52,4.90
2020,04,10,04,53,4.80
2020,04,10,04,54,4.90
2020,04,10,04,55,4.90
2020,04,10,04,56,5.00
2020,04,10,04,57,5.00
2020,04,10,04,58,5.10
2020,04,10,04,59,5.10
2020,04,10,05,00,5.10
2020,04,10,05,01,5.10
2020,04,10,05,02,5.10
2020,04,10,05,03,5.10
2020,04,10,05,04,5.10
2020,04,10,05,05,5.10
2020,04,10,05,06,5.00
2020,04,10,05,07,5.00
2020,04,10,05,08,4.90
2020,04,10,05,09,4.90
2020,04,10,05,10,4.90
2020,04,10,05,11,4.90
2020,04,10,05,12,4.80
2020,04,10,05,13,4.80
2020,04,10,05,14,4.80
2020,04,10,05,15,4.70
2020,04,10,05,16,4.70
2020,04,10,05,17,4.60
2020,04,10,05,18,4.50
2020,04,10,05,19,4.50
2020,04,10,05,20,4.50
2020,04,10,05,21,4.50
2020,04,10,05,22,4.50
2020,04,10,05,23,4.60
2020,04,10,05,24,4.60
2020,04,10,05,25,4.60
2020,04,10,05,26,4.60
2020,04,10,05,27,4.70
2020,04,10,05,28,4.70
2020,04,10,05,29,4.70
2020,04,10,05,30,4.70
2020,04,10,05,31,4.70
2020,04,10,05,32,4.70
2020,04,10,05,33,4.60
2020,04,10,05,34,4.50
2020,04,10,05,35,4.50
2020,04,10,05,36,4.40
2020,04,10,05,37,4.40
2020,04,10,05,38,4.40
2020,04,10,05,39,4.50
2020,04,10,05,40,4.50
2020,04,10,05,41,4.60
2020,04,10,05,42,4.70
2020,04,10,05,43,4.70
2020,04,10,05,44,4.70
2020,04,10,05,45,4.70
2020,04,10,05,46,4.80
2020,04,10,05,47,4.80
2020,04,10,05,48,4.80
2020,04,10,05,49,4.80
2020,04,10,05,50,4.80
2020,04,10,05,51,4.80
2020,04,10,05,52,4.80
2020,04,10,05,53,4.80
2020,04,10,05,54,4.70
2020,04,10,05,55,4.70
2020,04,10,05,56,4.70
2020,04,10,05,57,4.70
2020,04,10,05,58,4.70
2020,04,10,05,59,4.70
2020,04,10,06,00,4.70
2020,04,10,06,01,4.70
2020,04,10,06,02,4.70
2020,04,10,06,03,4.60
2020,04,10,06,04,4.60
2020,04,10,06,05,4.60
2020,04,10,06,06,4.60
2020,04,10,06,07,4.60
2020,04,10,06,08,4.60
2020,04,10,06,09,4.70
2020,04,10,06,10,4.70
2020,04,10,06,11,4.70
2020,04,10,06,12,4.70
2020,04,10,06,13,4.70
2020,04,10,06,14,4.70
2020,04,10,06,15,4.70
2020,04,10,06,16,4.70
2020,04,10,06,17,4.70
2020,04,10,06,18,4.70
2020,04,10,06,19,4.70
2020,04,10,06,20,4.70
2020,04,10,06,21,4.70
2020,04,10,06,22,4.70
2020,04,10,06,23,4.70
2020,04,10,06,24,4.70
2020,04,10,06,25,4.70
2020,04,10,06,26,4.70
2020,04,10,06,27,4.80
2020,04,10,06,28,4.80
2020,04,10,06,29,4.90
2020,04,10,06,30,5.00
2020,04,10,06,31,5.10
2020,04,10,06,32,5.20
2020,04,10,06,33,5.20
2020,04,10,06,34,5.20
2020,04,10,06,35,5.20
2020,04,10,06,36,5.20
2020,04,10,06,37,5.20
2020,04,10,06,38,5.30
2020,04,10,06,39,5.30
2020,04,10,06,40,5.30
2020,04,10,06,41,5.30
2020,04,10,06,42,5.20
2020,04,10,06,43,5.20
2020,04,10,06,44,5.20
2020,04,10,06,45,5.30
2020,04,10,06,46,5.30
2020,04,10,06,47,5.30
2020,04,10,06,48,5.40
2020,04,10,06,49,5.40
2020,04,10,06,50,5.40
2020,04,10,06,51,5.40
2020,04,10,06,52,5.40
2020,04,10,06,53,5.40
2020,04,10,06,54,5.40
2020,04,10,06,55,5.40
2020,04,10,06,56,5.40
2020,04,10,06,57,5.30
2020,04,10,06,58,5.30
2020,04,10,06,59,5.30
2020,04,10,07,00,5.20
2020,04,10,07,01,5.20
2020,04,10,07,02,5.20
2020,04,10,07,03,5.20
2020,04,10,07,04,5.10
2020,04,10,07,05,5.10
2020,04,10,07,06,5.10
2020,04,10,07,07,5.10
2020,04,10,07,08,5.10
2020,04,10,07,09,5.10
2020,04,10,07,10,5.20
2020,04,10,07,11,5.20
2020,04,10,07,12,5.30
2020,04,10,07,13,5.30
2020,04,10,07,14,5.30
2020,04,10,07,15,5.40
2020,04,10,07,16,5.40
2020,04,10,07,17,5.40
2020,04,10,07,18,5.40
2020,04,10,07,19,5.40
2020,04,10,07,20,5.40
2020,04,10,07,21,5.30
2020,04,10,07,22,5.40
2020,04,10,07,23,5.40
2020,04,10,07,24,5.40
2020,04,10,07,25,5.40
2020,04,10,07,26,5.40
2020,04,10,07,27,5.30
2020,04,10,07,28,5.30
2020,04,10,07,29,5.30
2020,04,10,07,30,5.30
2020,04,10,07,31,5.40
2020,04,10,07,32,5.40
2020,04,10,07,33,5.40
2020,04,10,07,34,5.50
2020,04,10,07,35,5.50
2020,04,10,07,36,5.60
2020,04,10,07,37,5.60
2020,04,10,07,38,5.70
2020,04,10,07,39,5.70
2020,04,10,07,40,5.80
2020,04,10,07,41,5.80
2020,04,10,07,42,5.80
2020,04,10,07,43,5.80
2020,04,10,07,44,5.80
2020,04,10,07,45,5.90
2020,04,10,07,46,5.90
2020,04,10,07,47,5.90
2020,04,10,07,48,5.90
2020,04,10,07,49,5.90
2020,04,10,07,50,5.90
2020,04,10,07,51,6.00
2020,04,10,07,52,6.00
2020,04,10,07,53,6.00
2020,04,10,07,54,6.00
2020,04,10,07,55,6.10
2020,04,10,07,56,6.10
2020,04,10,07,57,6.10
2020,04,10,07,58,6.20
2020,04,10,07,59,6.30
2020,04,10,08,00,6.30
2020,04,10,08,01,6.40
2020,04,10,08,02,6.40
2020,04,10,08,03,6.50
2020,04,10,08,04,6.60
2020,04,10,08,05,6.60
2020,04,10,08,06,6.70
2020,04,10,08,07,6.80
2020,04,10,08,08,6.80
2020,04,10,08,09,6.90
2020,04,10,08,10,6.90
2020,04,10,08,11,7.00
2020,04,10,08,12,7.00
2020,04,10,08,13,7.10
2020,04,10,08,14,7.10
2020,04,10,08,15,7.10
2020,04,10,08,16,7.10
2020,04,10,08,17,7.20
2020,04,10,08,18,7.20
2020,04,10,08,19,7.20
2020,04,10,08,20,7.30
2020,04,10,08,21,7.30
2020,04,10,08,22,7.40
2020,04,10,08,23,7.40
2020,04,10,08,24,7.40
2020,04,10,08,25,7.50
2020,04,10,08,26,7.50
2020,04,10,08,27,7.60
2020,04,10,08,28,7.70
2020,04,10,08,29,7.80
2020,04,10,08,30,7.90
2020,04,10,08,31,8.00
2020,04,10,08,32,8.20
2020,04,10,08,33,8.30
2020,04,10,08,34,8.30
2020,04,10,08,35,8.30
2020,04,10,08,36,8.40
2020,04,10,08,37,8.40
2020,04,10,08,38,8.40
2020,04,10,08,39,8.40
2020,04,10,08,40,8.40
2020,04,10,08,41,8.40
2020,04,10,08,42,8.40
2020,04,10,08,43,8.30
2020,04,10,08,44,8.30
2020,04,10,08,45,8.30
2020,04,10,08,46,8.30
2020,04,10,08,47,8.40
2020,04,10,08,48,8.40
2020,04,10,08,49,8.50
2020,04,10,08,50,8.50
2020,04,10,08,51,8.60
2020,04,10,08,52,8.60
2020,04,10,08,53,8.60
2020,04,10,08,54,8.70
2020,04,10,08,55,8.70
2020,04,10,08,56,8.80
2020,04,10,08,57,8.90
2020,04,10,08,58,8.90
2020,04,10,08,59,9.00
2020,04,10,09,00,9.10
2020,04,10,09,01,9.10
2020,04,10,09,02,9.20
2020,04,10,09,03,9.20
2020,04,10,09,04,9.30
2020,04,10,09,05,9.30
2020,04,10,09,06,9.40
2020,04,10,09,07,9.40
2020,04,10,09,08,9.40
2020,04,10,09,09,9.50
2020,04,10,09,10,9.60
2020,04,10,09,11,9.60
2020,04,10,09,12,9.70
2020,04,10,09,13,9.80
2020,04,10,09,14,9.90
2020,04,10,09,15,10.00
2020,04,10,09,16,10.00
2020,04,10,09,17,10.10
2020,04,10,09,18,10.20
2020,04,10,09,19,10.30
2020,04,10,09,20,10.40
2020,04,10,09,21,10.50
2020,04,10,09,22,10.50
2020,04,10,09,23,10.60
2020,04,10,09,24,10.60
2020,04,10,09,25,10.60
2020,04,10,09,26,10.70
2020,04,10,09,27,10.60
2020,04,10,09,28,10.50
2020,04,10,09,29,10.40
2020,04,10,09,30,10.30
2020,04,10,09,31,10.10
2020,04,10,09,32,10.00
2020,04,10,09,33,9.90
2020,04,10,09,34,9.90
2020,04,10,09,35,9.90
2020,04,10,09,36,9.80
2020,04,10,09,37,9.80
2020,04,10,09,38,9.90
2020,04,10,09,39,9.90
2020,04,10,09,40,9.90
2020,04,10,09,41,9.90
2020,04,10,09,42,10.00
2020,04,10,09,43,10.00
2020,04,10,09,44,10.10
2020,04,10,09,45,10.20
2020,04,10,09,46,10.30
2020,04,10,09,47,10.40
2020,04,10,09,48,10.60
2020,04,10,09,49,10.70
2020,04,10,09,50,10.80
2020,04,10,09,51,11.00
2020,04,10,09,52,11.10
2020,04,10,09,53,11.20
2020,04,10,09,54,11.40
2020,04,10,09,55,11.50
2020,04,10,09,56,11.60
2020,04,10,09,57,11.70
2020,04,10,09,58,11.80
2020,04,10,09,59,11.90
2020,04,10,10,00,11.90
2020,04,10,10,01,12.00
2020,04,10,10,02,12.10
2020,04,10,10,03,12.00
2020,04,10,10,04,12.00
2020,04,10,10,05,12.00
2020,04,10,10,06,12.00
2020,04,10,10,07,12.10
2020,04,10,10,08,12.10
2020,04,10,10,09,12.10
2020,04,10,10,10,12.10
2020,04,10,10,11,12.20
2020,04,10,10,12,12.20
2020,04,10,10,13,12.20
2020,04,10,10,14,12.20
2020,04,10,10,15,12.30
2020,04,10,10,16,12.40
2020,04,10,10,17,12.50
2020,04,10,10,18,12.50
2020,04,10,10,19,12.60
2020,04,10,10,20,12.70
2020,04,10,10,21,12.70
2020,04,10,10,22,12.70
2020,04,10,10,23,12.60
2020,04,10,10,24,12.50
2020,04,10,10,25,12.40
2020,04,10,10,26,12.40
2020,04,10,10,27,12.40
2020,04,10,10,28,12.20
2020,04,10,10,29,12.10
2020,04,10,10,30,12.00
2020,04,10,10,31,12.00
2020,04,10,10,32,11.90
2020,04,10,10,33,11.80
2020,04,10,10,34,11.80
2020,04,10,10,35,11.90
2020,04,10,10,36,12.00
2020,04,10,10,37,12.20
2020,04,10,10,38,12.20
2020,04,10,10,39,12.20
2020,04,10,10,40,12.20
2020,04,10,10,41,12.30
2020,04,10,10,42,12.30
2020,04,10,10,43,12.40
2020,04,10,10,44,12.50
2020,04,10,10,45,12.50
2020,04,10,10,46,12.60
2020,04,10,10,47,12.70
2020,04,10,10,48,12.80
2020,04,10,10,49,12.80
2020,04,10,10,50,12.90
2020,04,10,10,51,13.00
2020,04,10,10,52,13.00
2020,04,10,10,53,13.00
2020,04,10,10,54,13.00
2020,04,10,10,55,13.00
2020,04,10,10,56,13.10
2020,04,10,10,57,13.00
2020,04,10,10,58,13.00
2020,04,10,10,59,12.90
2020,04,10,11,00,12.90
2020,04,10,11,01,12.90
2020,04,10,11,02,12.90
2020,04,10,11,03,12.90
2020,04,10,11,04,12.90
2020,04,10,11,05,12.90
2020,04,10,11,06,12.90
2020,04,10,11,07,12.90
2020,04,10,11,08,12.90
2020,04,10,11,09,12.90
2020,04,10,11,10,12.90
2020,04,10,11,11,12.90
2020,04,10,11,12,12.90
2020,04,10,11,13,13.00
2020,04,10,11,14,13.00
2020,04,10,11,15,13.10
2020,04,10,11,16,13.30
2020,04,10,11,17,13.30
2020,04,10,11,18,13.40
2020,04,10,11,19,13.40
2020,04,10,11,20,13.30
2020,04,10,11,21,13.30
2020,04,10,11,22,13.40
2020,04,10,11,23,13.30
2020,04,10,11,24,13.20
2020,04,10,11,25,13.10
2020,04,10,11,26,13.10
2020,04,10,11,27,13.10
2020,04,10,11,28,13.10
2020,04,10,11,29,13.10
2020,04,10,11,30,13.20
2020,04,10,11,31,13.30
2020,04,10,11,32,13.40
2020,04,10,11,33,13.60
2020,04,10,11,34,13.70
2020,04,10,11,35,13.80
2020,04,10,11,36,13.80
2020,04,10,11,37,13.90
2020,04,10,11,38,14.00
2020,04,10,11,39,14.10
2020,04,10,11,40,14.20
2020,04,10,11,41,14.20
2020,04,10,11,42,14.10
2020,04,10,11,43,14.10
2020,04,10,11,44,14.10
2020,04,10,11,45,14.10
2020,04,10,11,46,14.10
2020,04,10,11,47,14.20
2020,04,10,11,48,14.20
2020,04,10,11,49,14.20
2020,04,10,11,50,14.10
2020,04,10,11,51,14.00
2020,04,10,11,52,13.90
2020,04,10,11,53,13.90
2020,04,10,11,54,13.90
2020,04,10,11,55,13.80
2020,04,10,11,56,13.80
2020,04,10,11,57,13.90
2020,04,10,11,58,13.90
2020,04,10,11,59,13.90
2020,04,10,12,00,14.00
2020,04,10,12,01,14.00
2020,04,10,12,02,14.00
2020,04,10,12,03,14.00
2020,04,10,12,04,13.90
2020,04,10,12,05,13.90
2020,04,10,12,06,13.90
2020,04,10,12,07,14.00
2020,04,10,12,08,14.00
2020,04,10,12,09,14.00
2020,04,10,12,10,14.00
2020,04,10,12,11,14.00
2020,04,10,12,12,14.00
2020,04,10,12,13,13.90
2020,04,10,12,14,13.90
2020,04,10,12,15,13.80
2020,04,10,12,16,13.80
2020,04,10,12,17,13.80
2020,04,10,12,18,13.90
2020,04,10,12,19,13.90
2020,04,10,12,20,13.90
2020,04,10,12,21,13.90
2020,04,10,12,22,13.80
2020,04,10,12,23,13.90
2020,04,10,12,24,13.90
2020,04,10,12,25,14.00
2020,04,10,12,26,14.10
2020,04,10,12,27,14.10
2020,04,10,12,28,14.20
2020,04,10,12,29,14.10
2020,04,10,12,30,14.10
2020,04,10,12,31,14.10
2020,04,10,12,32,14.00
2020,04,10,12,33,13.90
2020,04,10,12,34,13.80
2020,04,10,12,35,13.70
2020,04,10,12,36,13.70
2020,04,10,12,37,13.70
2020,04,10,12,38,13.80
2020,04,10,12,39,13.80
2020,04,10,12,40,13.90
2020,04,10,12,41,13.90
2020,04,10,12,42,13.90
2020,04,10,12,43,14.00
2020,04,10,12,44,14.00
2020,04,10,12,45,14.00
2020,04,10,12,46,14.10
2020,04,10,12,47,14.10
2020,04,10,12,48,14.10
2020,04,10,12,49,14.20
2020,04,10,12,50,14.20
2020,04,10,12,51,14.30
2020,04,10,12,52,14.30
2020,04,10,12,53,14.40
2020,04,10,12,54,14.50
2020,04,10,12,55,14.60
2020,04,10,12,56,14.60
2020,04,10,12,57,14.50
2020,04,10,12,58,14.40
2020,04,10,12,59,14.40
2020,04,10,13,00,14.30
2020,04,10,13,01,14.30
2020,04,10,13,02,14.30
2020,04,10,13,03,14.30
2020,04,10,13,04,14.40
2020,04,10,13,05,14.40
2020,04,10,13,06,14.50
2020,04,10,13,07,14.60
2020,04,10,13,08,14.70
2020,04,10,13,09,14.80
2020,04,10,13,10,14.90
2020,04,10,13,11,15.10
2020,04,10,13,12,15.20
2020,04,10,13,13,15.30
2020,04,10,13,14,15.30
2020,04,10,13,15,15.40
2020,04,10,13,16,15.40
2020,04,10,13,17,15.40
2020,04,10,13,18,15.30
2020,04,10,13,19,15.40
2020,04,10,13,20,15.40
2020,04,10,13,21,15.40
2020,04,10,13,22,15.40
2020,04,10,13,23,15.30
2020,04,10,13,24,15.20
2020,04,10,13,25,15.10
2020,04,10,13,26,15.10
2020,04,10,13,27,15.10
2020,04,10,13,28,15.20
2020,04,10,13,29,15.30
2020,04,10,13,30,15.30
2020,04,10,13,31,15.20
2020,04,10,13,32,15.10
2020,04,10,13,33,15.00
2020,04,10,13,34,15.00
2020,04,10,13,35,15.00
2020,04,10,13,36,14.90
2020,04,10,13,37,14.90
2020,04,10,13,38,14.90
2020,04,10,13,39,15.00
2020,04,10,13,40,15.10
2020,04,10,13,41,15.10
2020,04,10,13,42,15.10
2020,04,10,13,43,15.10
2020,04,10,13,44,15.20
2020,04,10,13,45,15.30
2020,04,10,13,46,15.40
2020,04,10,13,47,15.50
2020,04,10,13,48,15.50
2020,04,10,13,49,15.60
2020,04,10,13,50,15.60
2020,04,10,13,51,15.70
2020,04,10,13,52,15.70
2020,04,10,13,53,15.70
2020,04,10,13,54,15.70
2020,04,10,13,55,15.70
2020,04,10,13,56,15.70
2020,04,10,13,57,15.70
2020,04,10,13,58,15.70
2020,04,10,13,59,15.70
2020,04,10,14,00,15.70
2020,04,10,14,01,15.80
2020,04,10,14,02,15.80
2020,04,10,14,03,15.80
2020,04,10,14,04,15.80
2020,04,10,14,05,15.90
2020,04,10,14,06,16.00
2020,04,10,14,07,16.00
2020,04,10,14,08,16.00
2020,04,10,14,09,16.00
2020,04,10,14,10,16.00
2020,04,10,14,11,15.90
2020,04,10,14,12,15.80
2020,04,10,14,13,15.70
2020,04,10,14,14,15.70
2020,04,10,14,15,15.60
2020,04,10,14,16,15.60
2020,04,10,14,17,15.50
2020,04,10,14,18,15.50
2020,04,10,14,19,15.50
2020,04,10,14,20,15.50
2020,04,10,14,21,15.60
2020,04,10,14,22,15.60
2020,04,10,14,23,15.70
2020,04,10,14,24,15.90
2020,04,10,14,25,16.00
2020,04,10,14,26,16.20
2020,04,10,14,27,16.30
2020,04,10,14,28,16.40
2020,04,10,14,29,16.50
2020,04,10,14,30,16.50
2020,04,10,14,31,16.50
2020,04,10,14,32,16.60
2020,04,10,14,33,16.60
2020,04,10,14,34,16.60
2020,04,10,14,35,16.50
2020,04,10,14,36,16.40
2020,04,10,14,37,16.30
2020,04,10,14,38,16.20
2020,04,10,14,39,16.10
2020,04,10,14,40,16.10
2020,04,10,14,41,16.00
2020,04,10,14,42,16.00
2020,04,10,14,43,16.00
2020,04,10,14,44,16.00
2020,04,10,14,45,16.00
2020,04,10,14,46,16.00
2020,04,10,14,47,16.00
2020,04,10,14,48,15.90
2020,04,10,14,49,15.90
2020,04,10,14,50,15.90
2020,04,10,14,51,15.90
2020,04,10,14,52,15.90
2020,04,10,14,53,15.80
2020,04,10,14,54,15.80
2020,04,10,14,55,15.70
2020,04,10,14,56,15.70
2020,04,10,14,57,15.70
2020,04,10,14,58,15.80
2020,04,10,14,59,15.80
2020,04,10,15,00,15.80
2020,04,10,15,01,15.70
2020,04,10,15,02,15.70
2020,04,10,15,03,15.70
2020,04,10,15,04,15.60
2020,04,10,15,05,15.60
2020,04,10,15,06,15.60
2020,04,10,15,07,15.60
2020,04,10,15,08,15.60
2020,04,10,15,09,15.60
2020,04,10,15,10,15.70
2020,04,10,15,11,15.70
2020,04,10,15,12,15.70
2020,04,10,15,13,15.60
2020,04,10,15,14,15.50
2020,04,10,15,15,15.50
2020,04,10,15,16,15.40
2020,04,10,15,17,15.40
2020,04,10,15,18,15.40
2020,04,10,15,19,15.40
2020,04,10,15,20,15.30
2020,04,10,15,21,15.30
2020,04,10,15,22,15.30
2020,04,10,15,23,15.30
2020,04,10,15,24,15.30
2020,04,10,15,25,15.30
2020,04,10,15,26,15.20
2020,04,10,15,27,15.20
2020,04,10,15,28,15.20
2020,04,10,15,29,15.10
2020,04,10,15,30,15.20
2020,04,10,15,31,15.20
2020,04,10,15,32,15.20
2020,04,10,15,33,15.20
2020,04,10,15,34,15.20
2020,04,10,15,35,15.20
2020,04,10,15,36,15.20
2020,04,10,15,37,15.20
2020,04,10,15,38,15.20
2020,04,10,15,39,15.20
2020,04,10,15,40,15.20
2020,04,10,15,41,15.10
2020,04,10,15,42,15.10
2020,04,10,15,43,15.10
2020,04,10,15,44,15.10
2020,04,10,15,45,15.10
2020,04,10,15,46,15.10
2020,04,10,15,47,15.10
2020,04,10,15,48,15.10
2020,04,10,15,49,15.10
2020,04,10,15,50,15.10
2020,04,10,15,51,15.10
2020,04,10,15,52,15.10
2020,04,10,15,53,15.00
2020,04,10,15,54,15.00
2020,04,10,15,55,14.90
2020,04,10,15,56,15.00
2020,04,10,15,57,15.00
2020,04,10,15,58,15.00
2020,04,10,15,59,14.90
2020,04,10,16,00,14.90
2020,04,10,16,01,14.90
2020,04,10,16,02,14.90
2020,04,10,16,03,14.90
2020,04,10,16,04,15.00
2020,04,10,16,05,15.00
2020,04,10,16,06,15.00
2020,04,10,16,07,15.00
2020,04,10,16,08,15.10
2020,04,10,16,09,15.10
2020,04,10,16,10,15.20
2020,04,10,16,11,15.30
2020,04,10,16,12,15.30
2020,04,10,16,13,15.40
2020,04,10,16,14,15.40
2020,04,10,16,15,15.40
2020,04,10,16,16,15.50
2020,04,10,16,17,15.60
2020,04,10,16,18,15.60
2020,04,10,16,19,15.60
2020,04,10,16,20,15.60
2020,04,10,16,21,15.70
2020,04,10,16,22,15.70
2020,04,10,16,23,15.70
2020,04,10,16,24,15.70
2020,04,10,16,25,15.70
2020,04,10,16,26,15.70
2020,04,10,16,27,15.70
2020,04,10,16,28,15.80
2020,04,10,16,29,15.80
2020,04,10,16,30,15.80
2020,04,10,16,31,15.90
2020,04,10,16,32,15.90
2020,04,10,16,33,15.90
2020,04,10,16,34,15.90
2020,04,10,16,35,15.80
2020,04,10,16,36,15.80
2020,04,10,16,37,15.80
2020,04,10,16,38,15.80
2020,04,10,16,39,15.80
2020,04,10,16,40,15.90
2020,04,10,16,41,15.90
2020,04,10,16,42,15.90
2020,04,10,16,43,15.90
2020,04,10,16,44,15.90
2020,04,10,16,45,15.80
2020,04,10,16,46,15.80
2020,04,10,16,47,15.70
2020,04,10,16,48,15.70
2020,04,10,16,49,15.70
2020,04,10,16,50,15.70
2020,04,10,16,51,15.70
2020,04,10,16,52,15.70
2020,04,10,16,53,15.70
2020,04,10,16,54,15.60
2020,04,10,16,55,15.60
2020,04,10,16,56,15.60
2020,04,10,16,57,15.60
2020,04,10,16,58,15.60
2020,04,10,16,59,15.60
2020,04,10,17,00,15.70
2020,04,10,17,01,15.70
2020,04,10,17,02,15.80
2020,04,10,17,03,15.80
2020,04,10,17,04,15.80
2020,04,10,17,05,15.80
2020,04,10,17,06,15.80
2020,04,10,17,07,15.80
2020,04,10,17,08,15.80
2020,04,10,17,09,15.80
2020,04,10,17,10,15.80
2020,04,10,17,11,15.80
2020,04,10,17,12,15.80
2020,04,10,17,13,15.80
2020,04,10,17,14,15.80
2020,04,10,17,15,15.80
2020,04,10,17,16,15.80
2020,04,10,17,17,15.80
2020,04,10,17,18,15.80
2020,04,10,17,19,15.80
2020,04,10,17,20,15.90
2020,04,10,17,21,15.90
2020,04,10,17,22,15.90
2020,04,10,17,23,16.00
2020,04,10,17,24,16.00
2020,04,10,17,25,16.10
2020,04,10,17,26,16.10
2020,04,10,17,27,16.10
2020,04,10,17,28,16.10
2020,04,10,17,29,16.10
2020,04,10,17,30,16.10
2020,04,10,17,31,16.10
2020,04,10,17,32,16.10
2020,04,10,17,33,16.10
2020,04,10,17,34,16.10
2020,04,10,17,35,16.10
2020,04,10,17,36,16.10
2020,04,10,17,37,16.10
2020,04,10,17,38,16.10
2020,04,10,17,39,16.10
2020,04,10,17,40,16.10
2020,04,10,17,41,16.10
2020,04,10,17,42,16.10
2020,04,10,17,43,16.00